GW5223 Weather Reports


Display with metric or nautical units.
time (UTC)temp
F
wind
direction
speed
MPH
gust
MPH
rain 1hr
in
rain 24hr
in
rain mn
in
humidity
%
barometer
mb
20260504184804 75 239 2.0 12.0 0.00 0.00 0.00 34 1010.6
20260504184305 75 183 4.0 9.0 0.00 0.00 0.00 34 1010.7
20260504183804 74 234 2.0 7.0 0.00 0.00 0.00 34 1010.8
20260504183304 75 253 3.0 8.0 0.00 0.00 0.00 31 1010.8
20260504182804 75 215 3.0 12.0 0.00 0.00 0.00 34 1011.0
20260504181804 75 170 2.0 6.0 0.00 0.00 0.00 33 1011.1
20260504181304 75 197 2.0 6.0 0.00 0.00 0.00 34 1011.2
20260504180805 75 155 2.0 5.0 0.00 0.00 0.00 33 1011.1
20260504180304 74 180 2.0 5.0 0.00 0.00 0.00 34 1011.3
20260504175805 74 223 2.0 8.0 0.00 0.00 0.00 33 1011.4
20260504175304 74 221 1.0 9.0 0.00 0.00 0.00 36 1011.4
20260504173804 73 189 2.0 8.0 0.00 0.00 0.00 39 1011.6
20260504173304 73 283 2.0 3.0 0.00 0.00 0.00 35 1011.7
20260504172804 73 213 2.0 8.0 0.00 0.00 0.00 38 1011.7
20260504172304 73 293 1.0 5.0 0.00 0.00 0.00 38 1011.7
20260504171805 73 238 2.0 6.0 0.00 0.00 0.00 36 1011.8
20260504171304 73 233 2.0 3.0 0.00 0.00 0.00 36 1011.9
20260504170805 73 254 2.0 6.0 0.00 0.00 0.00 37 1012.0
20260504170305 72 273 2.0 6.0 0.00 0.00 0.00 38 1012.0
20260504160304 70 311 1.0 6.0 0.00 0.00 0.00 41 1013.0
20260504150804 68 211 1.0 6.0 0.00 0.00 0.00 46 1013.5
20260504150304 68 294 3.0 9.0 0.00 0.00 0.00 46 1013.5
20260504140804 65 179 2.0 6.0 0.00 0.00 0.00 53 1013.8
20260504140304 65 202 1.0 7.0 0.00 0.00 0.00 54 1013.8
20260504130804 60 170 1.0 8.0 0.00 0.00 0.00 59 1014.2
20260504130304 60 241 1.0 3.0 0.00 0.00 0.00 61 1014.2
20260504120304 54 224 1.0 12.0 0.00 0.00 0.00 75 1014.5
20260504081804 45 237 0.0 1.0 0.00 0.00 0.00 66 1014.7
20260504081304 45 237 0.0 0.0 0.00 0.00 0.00 66 1014.6
20260504080804 45 237 0.0 0.0 0.00 0.00 0.00 65 1014.6
20260504080303 45 237 0.0 0.0 0.00 0.00 0.00 65 1014.6
20260504070304 46 215 0.0 1.0 0.00 0.00 0.00 63 1014.4
20260504050305 47 202 0.0 0.0 0.00 0.00 0.00 61 1014.2
20260504045805 47 202 0.0 0.0 0.00 0.00 0.00 61 1014.2
20260504045304 47 202 0.0 1.0 0.00 0.00 0.00 60 1014.3
20260504044804 47 201 0.0 1.0 0.00 0.00 0.00 60 1014.3
20260504044304 47 201 0.0 0.0 0.00 0.00 0.00 59 1014.2
20260504043804 48 201 0.0 1.0 0.00 0.00 0.00 59 1014.1
20260504043304 48 201 0.0 1.0 0.00 0.00 0.00 58 1014.0
20260504042804 48 201 0.0 0.0 0.00 0.00 0.00 58 1013.9
20260504042304 48 201 0.0 0.0 0.00 0.00 0.00 58 1013.9
20260504041304 48 199 0.0 1.0 0.00 0.00 0.00 58 1013.8
20260504040843 48 201 0.0 0.0 0.00 0.00 0.00 58 1013.8
20260504040304 48 201 0.0 1.0 0.00 0.00 0.00 58 1013.7
20260504035305 48 202 0.0 1.0 0.00 0.00 0.00 58 1013.6
20260504034804 48 199 0.0 0.0 0.00 0.00 0.00 58 1013.6
20260504034303 48 199 0.0 0.0 0.00 0.00 0.00 58 1013.6
20260504033805 48 199 0.0 1.0 0.00 0.00 0.00 58 1013.6
20260504033304 49 199 0.0 0.0 0.00 0.00 0.00 57 1013.6
20260504032803 49 199 0.0 0.0 0.00 0.00 0.00 56 1013.5
20260504032304 49 199 0.0 1.0 0.00 0.00 0.00 56 1013.5
20260504031804 49 199 0.0 1.0 0.00 0.00 0.00 56 1013.5
20260504031305 49 199 0.0 1.0 0.00 0.00 0.00 55 1013.4
20260504030804 49 199 0.0 1.0 0.00 0.00 0.00 56 1013.4
20260504030303 49 200 0.0 0.0 0.00 0.00 0.00 56 1013.4
20260504025304 49 200 0.0 1.0 0.00 0.00 0.00 55 1013.5
20260504024304 49 200 0.0 0.0 0.00 0.00 0.00 54 1013.4
20260504023805 50 200 0.0 1.0 0.00 0.00 0.00 54 1013.4
20260504022804 50 260 0.0 2.0 0.00 0.00 0.00 54 1013.5
20260504021804 50 264 0.0 0.0 0.00 0.00 0.00 53 1013.4
20260504021304 50 264 0.0 1.0 0.00 0.00 0.00 53 1013.4
20260504020303 50 264 0.0 0.0 0.00 0.00 0.00 53 1013.4
20260504015803 50 264 0.0 0.0 0.00 0.00 0.00 52 1013.4
20260504014804 50 264 0.0 1.0 0.00 0.00 0.00 52 1013.3
20260504014304 50 264 0.0 1.0 0.00 0.00 0.00 52 1013.3
20260504013804 50 264 0.0 0.0 0.00 0.00 0.00 52 1013.2
20260504013304 50 264 0.0 1.0 0.00 0.00 0.00 51 1013.2
20260504012803 50 255 0.0 0.0 0.00 0.00 0.00 51 1013.2
20260504012304 51 255 0.0 0.0 0.00 0.00 0.00 51 1013.1
20260504011804 51 255 0.0 0.0 0.00 0.00 0.00 51 1013.1
20260504011304 51 255 0.0 0.0 0.00 0.00 0.00 51 1012.9
20260504010804 51 255 0.0 0.0 0.00 0.00 0.00 50 1012.9
20260504005804 52 255 0.0 0.0 0.00 0.00 0.00 48 1012.7
20260504005305 52 255 0.0 0.0 0.00 0.00 0.00 47 1012.7
20260504004806 53 255 0.0 0.0 0.00 0.00 0.00 46 1012.6
20260504004304 53 255 0.0 1.0 0.00 0.00 0.00 45 1012.6
20260504003804 54 255 0.0 0.0 0.00 0.00 0.00 44 1012.5
20260504003303 54 255 0.0 0.0 0.00 0.00 0.00 43 1012.5
20260504002804 55 255 0.0 0.0 0.00 0.00 0.00 42 1012.4
20260504001805 55 255 0.0 0.0 0.00 0.00 0.00 41 1012.3
20260504001305 56 255 0.0 0.0 0.00 0.00 0.00 40 1012.2
20260504000804 56 255 0.0 1.0 0.00 0.00 0.00 40 1012.2
20260504000304 56 256 0.0 1.0 0.00 0.00 0.00 40 1012.1
20260503235804 57 248 0.0 1.0 0.00 0.00 0.00 39 1012.1
20260503235304 57 248 0.0 2.0 0.00 0.00 0.00 38 1012.1
20260503233804 58 304 0.0 1.0 0.00 0.00 0.00 37 1011.9
20260503233304 58 301 2.0 6.0 0.00 0.00 0.00 36 1011.8
20260503232305 59 269 1.0 6.0 0.00 0.00 0.00 34 1011.8
20260503231805 59 287 2.0 7.0 0.00 0.00 0.00 34 1011.8
20260503230804 60 322 2.0 6.0 0.00 0.00 0.00 33 1011.7
20260503230304 60 296 1.0 6.0 0.00 0.00 0.00 34 1011.6
20260503225804 60 285 1.0 2.0 0.00 0.00 0.00 33 1011.6
20260503225305 60 288 2.0 3.0 0.00 0.00 0.00 32 1011.6
20260503224304 61 286 2.0 6.0 0.00 0.00 0.00 34 1011.6
20260503223305 61 263 1.0 5.0 0.00 0.00 0.00 33 1011.5
20260503222803 61 306 3.0 10.0 0.00 0.00 0.00 32 1011.5
20260503222304 61 326 2.0 3.0 0.00 0.00 0.00 32 1011.5
20260503221805 61 343 1.0 6.0 0.00 0.00 0.00 31 1011.5
20260503221304 61 11 3.0 8.0 0.00 0.00 0.00 30 1011.5
20260503220804 61 309 2.0 3.0 0.00 0.00 0.00 32 1011.6
20260503215804 62 279 1.0 3.0 0.00 0.00 0.00 31 1011.6
20260503215304 62 297 2.0 6.0 0.00 0.00 0.00 31 1011.6
20260503214804 62 265 1.0 3.0 0.00 0.00 0.00 31 1011.6
20260503214304 62 273 2.0 6.0 0.00 0.00 0.00 33 1011.7
20260503213806 62 331 3.0 8.0 0.00 0.00 0.00 31 1011.6
20260503212805 62 250 2.0 6.0 0.00 0.00 0.00 32 1011.6
20260503212305 62 278 3.0 8.0 0.00 0.00 0.00 32 1011.5
20260503211805 62 284 2.0 5.0 0.00 0.00 0.00 32 1011.6
20260503205805 61 309 2.0 9.0 0.00 0.00 0.00 32 1011.6
20260503205305 61 266 2.0 10.0 0.00 0.00 0.00 32 1011.7
20260503203804 61 302 3.0 6.0 0.00 0.00 0.00 33 1011.7
20260503203305 60 314 2.0 10.0 0.00 0.00 0.00 37 1011.7
20260503202804 60 311 3.0 8.0 0.00 0.00 0.00 34 1011.8
20260503201804 61 321 3.0 6.0 0.00 0.00 0.00 33 1011.8
20260503201304 61 312 4.0 9.0 0.00 0.00 0.00 33 1011.8
20260503200804 61 322 3.0 8.0 0.00 0.00 0.00 35 1011.9
20260503200305 61 337 3.0 12.0 0.00 0.00 0.00 33 1011.9
20260503195804 61 330 3.0 8.0 0.00 0.00 0.00 33 1011.8
20260503195304 61 313 1.0 12.0 0.00 0.00 0.00 35 1011.9
20260503194804 61 319 6.0 13.0 0.00 0.00 0.00 32 1012.0
20260503193804 61 254 3.0 14.0 0.00 0.00 0.00 33 1012.1
20260503193305 60 252 2.0 7.0 0.00 0.00 0.00 37 1012.0
20260503192804 59 286 2.0 6.0 0.00 0.00 0.00 37 1012.2
20260503192305 59 317 2.0 7.0 0.00 0.00 0.00 35 1012.2
20260503191805 59 340 4.0 9.0 0.00 0.00 0.00 36 1012.2
20260503191304 59 308 3.0 9.0 0.00 0.00 0.00 34 1012.3
20260503190805 59 278 3.0 9.0 0.00 0.00 0.00 34 1012.4
20260503190304 59 308 4.0 9.0 0.00 0.00 0.00 35 1012.5